Flag for U.S.A. Weather past 2 weeks in Beaumont, Texas, U.S.A.

Now
87 °F

Scattered clouds.


Feels Like: 99 °F
Forecast: 75 / 91 °F
Wind: 6 mph from Southwest

Location: Jefferson County Airport

Current Time: Jul 26, 2014 at 10:30:21 AM

Latest Report: Jul 26, 2014 at 9:53 AM


Visibility: 10 mi

Pressure: 30.06 "Hg

Humidity: 72%

Dew point: 77 °F

Location of BeaumontLocation

Historic Weather in Beaumont — Graph

°F

Beaumont temperature yesterday

Maximum temperature yesterday: 92 °F (at 2:53 PM)
Minimum temperature yesterday: 77 °F (at 4:53 AM)
Average temperature yesterday: 83 °F

Past Weeks' High & Low Weather Summary

 TemperatureHumidityPressure
High94 °F (Jul 21, 2:53 PM)100% (Jul 13, 5:01 AM)30.16 "Hg (Jul 13, 5:01 AM)
Low71 °F (Jul 14, 12:53 AM)46% (Jul 23, 3:53 PM)29.82 "Hg (Jul 18, 5:53 AM)
Average81 °F80%29.99 "Hg
* Reported Jul 11 8:53 AM — Jul 26 8:53 AM, Beaumont, Weather by CustomWeather, © 2014

Note: Actual official high and low records may vary slightly from our data, if they occured in-between our weather recording intervals... More about our weather records

Advertising

Beaumont weather history for previous 24 hours

 ConditionsComfort  
Time TempWeatherWind HumidityBarometerVisibility
8:53 AM
Jul 26
85 °FSunny.6 mph75%30.06 "Hg10 mi
7:53 AM81 °FSunny.3 mph88%30.04 "Hg10 mi
6:53 AM77 °FClear.No wind94%30.03 "Hg8 mi
5:53 AM76 °FClear.No wind94%30.01 "Hg10 mi
4:53 AM77 °FClear.No wind94%29.99 "Hg10 mi
3:53 AM78 °FClear.No wind93%29.99 "Hg10 mi
2:53 AM79 °FClear.No wind90%29.99 "Hg10 mi
1:53 AM79 °FClear.5 mph90%29.99 "Hg10 mi
12:53 AM79 °FClear.5 mph88%30.01 "Hg10 mi
11:53 PM
Jul 25
80 °FClear.3 mph87%30.01 "Hg10 mi
10:53 PM81 °FClear.5 mph85%30.00 "Hg10 mi
9:53 PM81 °FClear.6 mph85%29.99 "Hg10 mi
8:53 PM82 °FSunny.5 mph79%29.98 "Hg10 mi
7:53 PM85 °FSunny.6 mph72%29.98 "Hg10 mi
6:53 PM87 °FSunny.7 mph65%29.96 "Hg10 mi
5:53 PM88 °FPartly sunny.7 mph67%29.95 "Hg10 mi
4:53 PM87 °FScattered clouds.10 mph69%29.96 "Hg10 mi
3:53 PM91 °FSunny.7 mph56%29.96 "Hg10 mi
2:53 PM92 °FSunny.3 mph54%29.98 "Hg10 mi
1:53 PM89 °FPartly sunny.5 mph61%30.00 "Hg10 mi
12:53 PM90 °FPassing clouds.3 mph57%30.02 "Hg10 mi
11:53 AM88 °FScattered clouds.6 mph63%30.03 "Hg10 mi
10:53 AM87 °FPassing clouds.8 mph65%30.03 "Hg10 mi
Weather by CustomWeather, © 2014

See weather overviewHow to use our weather pages